Torna al catalogo

METEOR 2-8 DEB

AttivoPO
NORAD 36345·DEBRIS·🇷🇺 Russia

Lanciato Mar 25, 1982 da Plesetsk Cosmodrome

Loading…

Prossimi Passaggi (prossime 24 ore)

TLE

AggiornatoSource: Space-Track

Epoca: Sep 12, 2026, 08:45 UTC

1 36345U 82025AF  26255.36511404  .00001690  00000-0  68963-3 0  9993
2 36345  82.5251 129.9808 0030247 217.5657 142.3415 14.26663892677986

Traccia METEOR 2-8 DEB in tempo reale con AllMySat

Download on the App Store